| time (UTC) | temp C | wind direction | speed KPH | gust KPH | rain 1hr cm | rain 24hr cm | rain mn cm | humidity % | barometer mb |
| 20260508005023 | 5 | 110 | 1.6 | 3.2 | 0.00 | 0.00 | 0.00 | 77 | 1006.9 |
| 20260508004518 | 5 | 124 | 3.2 | 3.2 | 0.00 | 0.00 | 0.00 | 78 | 1006.8 |
| 20260508004015 | 5 | 165 | 1.6 | 4.8 | 0.00 | 0.00 | 0.00 | 80 | 1006.7 |
| 20260508003512 | 5 | 132 | 1.6 | 3.2 | 0.00 | 0.00 | 0.00 | 82 | 1006.5 |
| 20260508003009 | 5 | 122 | 1.6 | 3.2 | 0.00 | 0.00 | 0.00 | 81 | 1006.7 |
| 20260508002505 | 5 | 147 | 4.8 | 8.0 | 0.00 | 0.00 | 0.00 | 81 | 1006.7 |
| 20260508002003 | 5 | 122 | 4.8 | 4.8 | 0.00 | 0.00 | 0.00 | 80 | 1006.6 |
| 20260508001458 | 5 | 133 | 4.8 | 4.8 | 0.00 | 0.00 | 0.00 | 79 | 1006.5 |
| 20260508000955 | 5 | 120 | 4.8 | 8.0 | 0.00 | 0.00 | 0.00 | 76 | 1006.6 |
| 20260508000450 | 5 | 142 | 4.8 | 8.0 | 0.00 | 0.00 | 0.00 | 75 | 1006.7 |
| 20260507235948 | 5 | 160 | 6.4 | 9.7 | 0.00 | 0.00 | 0.00 | 75 | 1006.5 |
| 20260507235444 | 5 | 139 | 3.2 | 4.8 | 0.00 | 0.00 | 0.00 | 76 | 1006.8 |
| 20260507234942 | 5 | 119 | 4.8 | 8.0 | 0.00 | 0.00 | 0.00 | 75 | 1006.6 |
| 20260507234439 | 5 | 143 | 3.2 | 3.2 | 0.00 | 0.00 | 0.00 | 75 | 1006.6 |
| 20260507233935 | 5 | 161 | 6.4 | 9.7 | 0.00 | 0.00 | 0.00 | 73 | 1006.7 |
| 20260507233432 | 5 | 139 | 8.0 | 11.3 | 0.00 | 0.00 | 0.00 | 72 | 1006.6 |
| 20260507232930 | 5 | 120 | 6.4 | 8.0 | 0.00 | 0.00 | 0.00 | 74 | 1006.6 |
| 20260507232421 | 5 | 133 | 4.8 | 8.0 | 0.00 | 0.00 | 0.00 | 75 | 1006.7 |
| 20260507231918 | 5 | 122 | 4.8 | 8.0 | 0.00 | 0.00 | 0.00 | 75 | 1006.8 |
| 20260507231414 | 5 | 117 | 4.8 | 4.8 | 0.00 | 0.00 | 0.00 | 75 | 1006.9 |
| 20260507230911 | 5 | 113 | 3.2 | 3.2 | 0.00 | 0.00 | 0.00 | 72 | 1006.9 |
| 20260507230409 | 5 | 141 | 4.8 | 4.8 | 0.00 | 0.00 | 0.00 | 72 | 1006.8 |
| 20260507225908 | 5 | 134 | 8.0 | 11.3 | 0.00 | 0.00 | 0.00 | 71 | 1006.6 |
| 20260507225405 | 6 | 145 | 3.2 | 3.2 | 0.00 | 0.00 | 0.00 | 71 | 1006.8 |
| 20260507224901 | 6 | 145 | 3.2 | 3.2 | 0.00 | 0.00 | 0.00 | 71 | 1006.7 |
| 20260507224357 | 6 | 111 | 3.2 | 4.8 | 0.00 | 0.00 | 0.00 | 72 | 1006.9 |
| 20260507223854 | 6 | 132 | 8.0 | 9.7 | 0.00 | 0.00 | 0.00 | 70 | 1006.8 |
| 20260507223350 | 6 | 142 | 4.8 | 4.8 | 0.00 | 0.00 | 0.00 | 70 | 1007.2 |
| 20260507222847 | 6 | 120 | 8.0 | 11.3 | 0.00 | 0.00 | 0.00 | 71 | 1006.9 |
| 20260507222343 | 5 | 128 | 4.8 | 8.0 | 0.00 | 0.00 | 0.00 | 73 | 1006.8 |
| 20260507221841 | 6 | 160 | 8.0 | 9.7 | 0.00 | 0.00 | 0.00 | 71 | 1006.8 |
| 20260507221337 | 6 | 145 | 8.0 | 9.7 | 0.00 | 0.00 | 0.00 | 72 | 1006.8 |
| 20260507220833 | 6 | 177 | 4.8 | 4.8 | 0.00 | 0.00 | 0.00 | 71 | 1007.0 |
| 20260507220332 | 5 | 136 | 3.2 | 8.0 | 0.00 | 0.00 | 0.00 | 71 | 1007.1 |
| 20260507215828 | 5 | 114 | 4.8 | 4.8 | 0.00 | 0.00 | 0.00 | 73 | 1006.9 |
| 20260507215325 | 6 | 124 | 4.8 | 9.7 | 0.00 | 0.00 | 0.00 | 76 | 1006.9 |
| 20260507214822 | 6 | 118 | 8.0 | 11.3 | 0.00 | 0.00 | 0.00 | 77 | 1007.0 |
| 20260507214320 | 6 | 147 | 3.2 | 4.8 | 0.00 | 0.00 | 0.00 | 75 | 1006.8 |
| 20260507213814 | 5 | 138 | 6.4 | 9.7 | 0.00 | 0.00 | 0.00 | 76 | 1007.2 |
| 20260507213311 | 5 | 121 | 8.0 | 12.9 | 0.00 | 0.00 | 0.00 | 75 | 1006.8 |
| 20260507212808 | 5 | 125 | 6.4 | 9.7 | 0.00 | 0.00 | 0.00 | 73 | 1006.8 |
| 20260507212307 | 5 | 88 | 6.4 | 9.7 | 0.00 | 0.00 | 0.00 | 74 | 1006.9 |
| 20260507211801 | 5 | 138 | 6.4 | 9.7 | 0.00 | 0.00 | 0.00 | 72 | 1007.2 |
| 20260507211257 | 5 | 124 | 4.8 | 8.0 | 0.00 | 0.00 | 0.00 | 73 | 1007.1 |
| 20260507210754 | 5 | 152 | 4.8 | 4.8 | 0.00 | 0.00 | 0.00 | 75 | 1006.9 |
| 20260507210251 | 5 | 135 | 8.0 | 12.9 | 0.00 | 0.00 | 0.00 | 74 | 1007.1 |
| 20260507205748 | 5 | 123 | 6.4 | 9.7 | 0.00 | 0.00 | 0.00 | 74 | 1007.0 |
| 20260507205245 | 5 | 123 | 3.2 | 11.3 | 0.00 | 0.00 | 0.00 | 75 | 1007.1 |
| 20260507204741 | 5 | 128 | 9.7 | 14.5 | 0.00 | 0.00 | 0.00 | 71 | 1007.2 |
| 20260507204239 | 5 | 106 | 3.2 | 4.8 | 0.00 | 0.00 | 0.00 | 72 | 1007.0 |
| 20260507203736 | 5 | 155 | 8.0 | 9.7 | 0.00 | 0.00 | 0.00 | 72 | 1007.2 |
| 20260507203233 | 5 | 121 | 4.8 | 11.3 | 0.00 | 0.00 | 0.00 | 72 | 1007.1 |
| 20260507202730 | 5 | 145 | 4.8 | 9.7 | 0.00 | 0.00 | 0.00 | 70 | 1007.3 |
| 20260507202226 | 5 | 148 | 8.0 | 8.0 | 0.00 | 0.00 | 0.00 | 71 | 1007.0 |
| 20260507201721 | 5 | 133 | 8.0 | 9.7 | 0.00 | 0.00 | 0.00 | 71 | 1007.0 |
| 20260507201218 | 6 | 135 | 4.8 | 12.9 | 0.00 | 0.00 | 0.00 | 72 | 1007.3 |
| 20260507200714 | 6 | 94 | 9.7 | 11.3 | 0.00 | 0.00 | 0.00 | 72 | 1007.2 |
| 20260507200210 | 6 | 137 | 11.3 | 12.9 | 0.00 | 0.00 | 0.00 | 72 | 1007.3 |
| 20260507195707 | 6 | 114 | 4.8 | 9.7 | 0.00 | 0.00 | 0.00 | 72 | 1007.1 |
| 20260507195204 | 6 | 128 | 6.4 | 8.0 | 0.00 | 0.00 | 0.00 | 72 | 1007.2 |
| 20260507194701 | 5 | 109 | 4.8 | 8.0 | 0.00 | 0.00 | 0.00 | 75 | 1007.3 |
| 20260507194156 | 5 | 96 | 6.4 | 12.9 | 0.00 | 0.00 | 0.00 | 74 | 1007.4 |
| 20260507193653 | 6 | 60 | 6.4 | 11.3 | 0.00 | 0.00 | 0.00 | 74 | 1007.4 |
| 20260507193151 | 5 | 79 | 4.8 | 8.0 | 0.00 | 0.00 | 0.00 | 75 | 1007.2 |
| 20260507192646 | 5 | 108 | 11.3 | 16.1 | 0.00 | 0.00 | 0.00 | 73 | 1007.2 |
| 20260507192144 | 6 | 87 | 6.4 | 9.7 | 0.00 | 0.00 | 0.00 | 75 | 1007.3 |
| 20260507191639 | 5 | 141 | 6.4 | 11.3 | 0.00 | 0.00 | 0.00 | 76 | 1007.4 |
| 20260507191136 | 5 | 149 | 8.0 | 12.9 | 0.00 | 0.00 | 0.00 | 75 | 1007.5 |
| 20260507190633 | 5 | 147 | 14.5 | 16.1 | 0.00 | 0.00 | 0.00 | 75 | 1007.3 |
| 20260507190132 | 6 | 119 | 8.0 | 20.9 | 0.00 | 0.00 | 0.00 | 77 | 1007.3 |
| 20260507185630 | 6 | 105 | 11.3 | 14.5 | 0.00 | 0.00 | 0.00 | 75 | 1007.4 |
| 20260507185126 | 6 | 169 | 4.8 | 12.9 | 0.00 | 0.00 | 0.00 | 73 | 1007.2 |
| 20260507184624 | 6 | 92 | 8.0 | 14.5 | 0.00 | 0.00 | 0.00 | 71 | 1007.5 |
| 20260507184122 | 6 | 59 | 4.8 | 9.7 | 0.00 | 0.00 | 0.00 | 71 | 1007.4 |
| 20260507183618 | 6 | 146 | 8.0 | 12.9 | 0.00 | 0.00 | 0.00 | 71 | 1007.2 |
| 20260507183115 | 6 | 84 | 8.0 | 12.9 | 0.00 | 0.00 | 0.00 | 69 | 1007.5 |
| 20260507182612 | 7 | 129 | 0.0 | 11.3 | 0.00 | 0.00 | 0.00 | 64 | 1007.6 |
| 20260507182108 | 7 | 205 | 3.2 | 3.2 | 0.00 | 0.00 | 0.00 | 61 | 1007.6 |
| 20260507181605 | 7 | 268 | 4.8 | 4.8 | 0.00 | 0.00 | 0.00 | 63 | 1007.4 |
| 20260507181101 | 7 | 250 | 1.6 | 3.2 | 0.00 | 0.00 | 0.00 | 63 | 1007.5 |
| 20260507180558 | 7 | 328 | 8.0 | 9.7 | 0.00 | 0.00 | 0.00 | 62 | 1007.6 |
| 20260507180054 | 7 | 270 | 9.7 | 11.3 | 0.00 | 0.00 | 0.00 | 64 | 1007.7 |
| 20260507175550 | 7 | 349 | 8.0 | 14.5 | 0.00 | 0.00 | 0.00 | 64 | 1007.8 |
| 20260507175048 | 7 | 300 | 22.5 | 27.4 | 0.00 | 0.00 | 0.00 | 66 | 1007.7 |
| 20260507174545 | 7 | 290 | 6.4 | 14.5 | 0.00 | 0.00 | 0.00 | 65 | 1007.7 |
| 20260507174043 | 7 | 275 | 14.5 | 22.5 | 0.00 | 0.00 | 0.00 | 64 | 1007.7 |
| 20260507173540 | 7 | 312 | 8.0 | 16.1 | 0.00 | 0.00 | 0.00 | 61 | 1007.5 |
| 20260507173037 | 7 | 331 | 3.2 | 14.5 | 0.00 | 0.00 | 0.00 | 62 | 1007.8 |
| 20260507172532 | 7 | 243 | 12.9 | 12.9 | 0.00 | 0.00 | 0.00 | 60 | 1007.7 |
| 20260507172029 | 7 | 312 | 9.7 | 27.4 | 0.00 | 0.00 | 0.00 | 59 | 1007.8 |
| 20260507171525 | 7 | 288 | 6.4 | 12.9 | 0.00 | 0.00 | 0.00 | 59 | 1007.8 |
| 20260507171023 | 7 | 270 | 17.7 | 20.9 | 0.00 | 0.00 | 0.00 | 58 | 1007.8 |
| 20260507170519 | 7 | 258 | 11.3 | 16.1 | 0.00 | 0.00 | 0.00 | 59 | 1007.8 |
| 20260507170016 | 7 | 256 | 14.5 | 16.1 | 0.00 | 0.00 | 0.00 | 60 | 1008.1 |
| 20260507165512 | 7 | 244 | 4.8 | 8.0 | 0.00 | 0.00 | 0.00 | 59 | 1007.9 |
| 20260507165008 | 7 | 320 | 8.0 | 9.7 | 0.00 | 0.00 | 0.00 | 61 | 1007.9 |
| 20260507164505 | 7 | 333 | 8.0 | 12.9 | 0.00 | 0.00 | 0.00 | 60 | 1008.0 |
| 20260507164002 | 7 | 282 | 12.9 | 16.1 | 0.00 | 0.00 | 0.00 | 61 | 1008.4 |
| 20260507163459 | 7 | 283 | 9.7 | 16.1 | 0.00 | 0.00 | 0.00 | 60 | 1008.3 |
| 20260507162956 | 7 | 318 | 12.9 | 16.1 | 0.00 | 0.00 | 0.00 | 61 | 1008.2 |
| 20260507162451 | 7 | 259 | 8.0 | 12.9 | 0.00 | 0.00 | 0.00 | 61 | 1008.2 |
| 20260507161948 | 7 | 330 | 11.3 | 20.9 | 0.00 | 0.00 | 0.00 | 61 | 1008.2 |
| 20260507161444 | 7 | 332 | 8.0 | 11.3 | 0.00 | 0.00 | 0.00 | 60 | 1008.3 |
| 20260507160942 | 7 | 274 | 11.3 | 12.9 | 0.00 | 0.00 | 0.00 | 63 | 1008.3 |
| 20260507160437 | 7 | 257 | 14.5 | 17.7 | 0.00 | 0.00 | 0.00 | 59 | 1008.1 |
| 20260507155933 | 7 | 326 | 9.7 | 12.9 | 0.00 | 0.00 | 0.00 | 61 | 1008.3 |
| 20260507155430 | 7 | 337 | 12.9 | 14.5 | 0.00 | 0.00 | 0.00 | 60 | 1008.1 |
| 20260507154927 | 7 | 304 | 4.8 | 8.0 | 0.00 | 0.00 | 0.00 | 62 | 1008.3 |
| 20260507154423 | 7 | 300 | 9.7 | 12.9 | 0.00 | 0.00 | 0.00 | 62 | 1008.2 |
| 20260507153921 | 7 | 320 | 9.7 | 20.9 | 0.00 | 0.00 | 0.00 | 63 | 1008.3 |
| 20260507153417 | 7 | 331 | 6.4 | 12.9 | 0.00 | 0.00 | 0.00 | 63 | 1008.2 |
| 20260507152914 | 7 | 246 | 3.2 | 4.8 | 0.00 | 0.00 | 0.00 | 64 | 1008.2 |
| 20260507152410 | 7 | 200 | 9.7 | 11.3 | 0.00 | 0.00 | 0.00 | 62 | 1008.0 |
| 20260507151906 | 7 | 269 | 9.7 | 16.1 | 0.00 | 0.00 | 0.00 | 62 | 1008.2 |
| 20260507151402 | 7 | 261 | 11.3 | 14.5 | 0.00 | 0.00 | 0.00 | 62 | 1008.2 |
| 20260507150859 | 7 | 281 | 11.3 | 14.5 | 0.00 | 0.00 | 0.00 | 62 | 1008.2 |
| 20260507150356 | 7 | 321 | 12.9 | 16.1 | 0.00 | 0.00 | 0.00 | 63 | 1008.3 |
| 20260507145852 | 7 | 323 | 6.4 | 17.7 | 0.00 | 0.00 | 0.00 | 64 | 1008.3 |
| 20260507145348 | 7 | 281 | 11.3 | 20.9 | 0.00 | 0.00 | 0.00 | 63 | 1008.3 |
| 20260507144846 | 7 | 236 | 12.9 | 16.1 | 0.00 | 0.00 | 0.00 | 62 | 1008.4 |
| 20260507144343 | 6 | 301 | 11.3 | 32.2 | 0.00 | 0.00 | 0.00 | 63 | 1008.3 |
| 20260507143840 | 6 | 275 | 16.1 | 27.4 | 0.00 | 0.00 | 0.00 | 63 | 1008.2 |
| 20260507143337 | 6 | 290 | 9.7 | 16.1 | 0.00 | 0.00 | 0.00 | 64 | 1008.4 |
| 20260507142833 | 7 | 299 | 12.9 | 16.1 | 0.00 | 0.00 | 0.00 | 64 | 1008.4 |
| 20260507142330 | 6 | 272 | 4.8 | 12.9 | 0.00 | 0.00 | 0.00 | 64 | 1008.2 |
| 20260507141826 | 6 | 300 | 11.3 | 25.7 | 0.00 | 0.00 | 0.00 | 65 | 1008.2 |
| 20260507141323 | 6 | 248 | 11.3 | 35.4 | 0.00 | 0.00 | 0.00 | 65 | 1008.6 |
| 20260507140820 | 6 | 287 | 11.3 | 12.9 | 0.00 | 0.00 | 0.00 | 67 | 1008.4 |
| 20260507140316 | 6 | 244 | 11.3 | 14.5 | 0.00 | 0.00 | 0.00 | 67 | 1008.6 |
| 20260507135815 | 6 | 271 | 6.4 | 12.9 | 0.00 | 0.00 | 0.00 | 67 | 1008.6 |
| 20260507135311 | 6 | 245 | 9.7 | 12.9 | 0.00 | 0.00 | 0.00 | 68 | 1008.7 |
| 20260507134808 | 6 | 45 | 1.6 | 11.3 | 0.00 | 0.00 | 0.00 | 67 | 1008.5 |
| 20260507134304 | 6 | 243 | 4.8 | 4.8 | 0.00 | 0.00 | 0.00 | 68 | 1008.5 |
| 20260507133800 | 6 | 266 | 3.2 | 8.0 | 0.00 | 0.00 | 0.00 | 71 | 1008.7 |
| 20260507133256 | 6 | 295 | 11.3 | 16.1 | 0.00 | 0.00 | 0.00 | 67 | 1008.8 |
| 20260507132754 | 6 | 205 | 4.8 | 8.0 | 0.00 | 0.00 | 0.00 | 67 | 1008.8 |
| 20260507132251 | 5 | 350 | 8.0 | 9.7 | 0.00 | 0.00 | 0.00 | 69 | 1008.7 |
| 20260507131748 | 5 | 281 | 6.4 | 8.0 | 0.00 | 0.00 | 0.00 | 70 | 1008.8 |
| 20260507131245 | 5 | 273 | 8.0 | 14.5 | 0.00 | 0.00 | 0.00 | 68 | 1008.6 |
| 20260507130741 | 5 | 240 | 11.3 | 12.9 | 0.00 | 0.00 | 0.00 | 70 | 1008.6 |
| 20260507130239 | 5 | 318 | 8.0 | 9.7 | 0.00 | 0.00 | 0.00 | 69 | 1008.6 |
| 20260507125738 | 5 | 266 | 4.8 | 9.7 | 0.00 | 0.00 | 0.00 | 73 | 1008.4 |
| 20260507125235 | 5 | 275 | 6.4 | 9.7 | 0.00 | 0.00 | 0.00 | 72 | 1008.4 |
| 20260507124731 | 5 | 317 | 3.2 | 4.8 | 0.00 | 0.00 | 0.00 | 72 | 1008.6 |
| 20260507124228 | 5 | 245 | 3.2 | 4.8 | 0.00 | 0.00 | 0.00 | 71 | 1008.6 |
| 20260507123727 | 5 | 223 | 3.2 | 4.8 | 0.00 | 0.00 | 0.00 | 72 | 1008.4 |
| 20260507123224 | 5 | 199 | 1.6 | 8.0 | 0.00 | 0.00 | 0.00 | 73 | 1008.4 |
| 20260507122719 | 5 | 275 | 4.8 | 4.8 | 0.00 | 0.00 | 0.00 | 73 | 1008.4 |
| 20260507122215 | 5 | 236 | 3.2 | 4.8 | 0.00 | 0.00 | 0.00 | 75 | 1008.5 |
| 20260507121711 | 4 | 318 | 4.8 | 8.0 | 0.00 | 0.00 | 0.00 | 76 | 1008.4 |
| 20260507121207 | 4 | 241 | 3.2 | 4.8 | 0.00 | 0.00 | 0.00 | 75 | 1008.5 |
| 20260507120703 | 4 | 323 | 6.4 | 8.0 | 0.00 | 0.00 | 0.00 | 76 | 1008.5 |
| 20260507120200 | 3 | 246 | 4.8 | 4.8 | 0.00 | 0.00 | 0.00 | 77 | 1008.4 |
| 20260507115656 | 3 | 300 | 1.6 | 4.8 | 0.00 | 0.00 | 0.00 | 80 | 1008.3 |
| 20260507115152 | 3 | 266 | 4.8 | 4.8 | 0.00 | 0.00 | 0.00 | 79 | 1008.5 |
| 20260507114648 | 3 | 259 | 3.2 | 3.2 | 0.00 | 0.00 | 0.00 | 79 | 1008.4 |
| 20260507114146 | 2 | 277 | 4.8 | 4.8 | 0.00 | 0.00 | 0.00 | 80 | 1008.4 |
| 20260507113643 | 2 | 295 | 3.2 | 3.2 | 0.00 | 0.00 | 0.00 | 84 | 1008.4 |
| 20260507113140 | 2 | 147 | 1.6 | 1.6 | 0.00 | 0.00 | 0.00 | 86 | 1008.3 |
| 20260507112638 | 1 | 150 | 1.6 | 1.6 | 0.00 | 0.00 | 0.00 | 87 | 1008.4 |
| 20260507112134 | 1 | 160 | 1.6 | 1.6 | 0.00 | 0.00 | 0.00 | 88 | 1008.3 |
| 20260507111631 | 0 | 161 | 0.0 | 1.6 | 0.00 | 0.00 | 0.00 | 94 | 1008.3 |
| 20260507111128 | 0 | 149 | 1.6 | 3.2 | 0.00 | 0.00 | 0.00 | 98 | 1008.3 |
| 20260507110624 | 0 | 138 | 1.6 | 1.6 | 0.00 | 0.00 | 0.00 | 99 | 1008.1 |
| 20260507110121 | -1 | 110 | 0.0 | 1.6 | 0.00 | 0.00 | 0.00 | 99 | 1008.2 |
| 20260507105618 | -1 | 113 | 0.0 | 0.0 | 0.00 | 0.00 | 0.00 | 99 | 1008.4 |
| 20260507105114 | -1 | 113 | 0.0 | 0.0 | 0.00 | 0.00 | 0.00 | 99 | 1008.1 |
| 20260507104611 | -1 | 121 | 0.0 | 0.0 | 0.00 | 0.00 | 0.00 | 99 | 1008.0 |
| 20260507104108 | -1 | 124 | 1.6 | 1.6 | 0.00 | 0.00 | 0.00 | 99 | 1008.1 |
| 20260507103604 | -1 | 118 | 0.0 | 0.0 | 0.00 | 0.00 | 0.00 | 99 | 1008.1 |
| 20260507103101 | -1 | 125 | 0.0 | 1.6 | 0.00 | 0.00 | 0.00 | 99 | 1008.0 |
| 20260507102557 | -1 | 123 | 1.6 | 1.6 | 0.00 | 0.00 | 0.00 | 99 | 1008.1 |
| 20260507102053 | -1 | 120 | 1.6 | 1.6 | 0.00 | 0.00 | 0.00 | 99 | 1008.1 |
| 20260507101548 | -1 | 101 | 0.0 | 0.0 | 0.00 | 0.00 | 0.00 | 99 | 1007.9 |
| 20260507101045 | -1 | 93 | 1.6 | 1.6 | 0.00 | 0.00 | 0.00 | 98 | 1007.9 |
| 20260507100543 | -1 | 102 | 0.0 | 0.0 | 0.00 | 0.00 | 0.00 | 98 | 1008.1 |
| 20260507100041 | 0 | 102 | 0.0 | 1.6 | 0.00 | 0.00 | 0.00 | 98 | 1008.0 |
| 20260507095538 | -1 | 96 | 0.0 | 0.0 | 0.00 | 0.00 | 0.00 | 96 | 1008.0 |
| 20260507095035 | -1 | 94 | 0.0 | 1.6 | 0.00 | 0.00 | 0.00 | 96 | 1007.9 |
| 20260507094531 | -1 | 86 | 0.0 | 1.6 | 0.00 | 0.00 | 0.00 | 96 | 1008.0 |
| 20260507094028 | -1 | 78 | 0.0 | 0.0 | 0.00 | 0.00 | 0.00 | 96 | 1007.9 |
| 20260507093526 | -1 | 78 | 0.0 | 0.0 | 0.00 | 0.00 | 0.00 | 95 | 1008.0 |
| 20260507093024 | -1 | 78 | 0.0 | 0.0 | 0.00 | 0.00 | 0.00 | 95 | 1008.1 |
| 20260507092520 | 0 | 78 | 0.0 | 0.0 | 0.00 | 0.00 | 0.00 | 95 | 1007.9 |
| 20260507092017 | 0 | 78 | 0.0 | 0.0 | 0.00 | 0.00 | 0.00 | 94 | 1008.2 |
| 20260507091514 | 0 | 76 | 0.0 | 0.0 | 0.00 | 0.00 | 0.00 | 94 | 1008.2 |
| 20260507091010 | 0 | 68 | 0.0 | 0.0 | 0.00 | 0.00 | 0.00 | 94 | 1008.4 |
| 20260507090506 | 0 | 54 | 0.0 | 1.6 | 0.00 | 0.00 | 0.00 | 94 | 1008.1 |
| 20260507090003 | 0 | 13 | 0.0 | 0.0 | 0.00 | 0.00 | 0.00 | 94 | 1008.1 |
| 20260507085500 | 0 | 345 | 0.0 | 0.0 | 0.00 | 0.00 | 0.00 | 94 | 1008.3 |
| 20260507084956 | 0 | 336 | 0.0 | 0.0 | 0.00 | 0.00 | 0.00 | 94 | 1008.2 |
| 20260507084453 | 0 | 330 | 0.0 | 0.0 | 0.00 | 0.00 | 0.00 | 94 | 1008.3 |
| 20260507083950 | 0 | 320 | 1.6 | 1.6 | 0.00 | 0.00 | 0.00 | 96 | 1008.4 |
| 20260507083446 | 0 | 320 | 0.0 | 0.0 | 0.00 | 0.00 | 0.00 | 95 | 1008.3 |
| 20260507082943 | 0 | 319 | 0.0 | 1.6 | 0.00 | 0.00 | 0.00 | 93 | 1008.1 |
| 20260507082439 | 1 | 320 | 1.6 | 1.6 | 0.00 | 0.00 | 0.00 | 91 | 1008.2 |
| 20260507081936 | 1 | 320 | 1.6 | 1.6 | 0.00 | 0.00 | 0.00 | 88 | 1008.3 |
| 20260507081432 | 1 | 316 | 1.6 | 1.6 | 0.00 | 0.00 | 0.00 | 88 | 1008.3 |
| 20260507080929 | 1 | 301 | 1.6 | 3.2 | 0.00 | 0.00 | 0.00 | 87 | 1008.3 |
| 20260507080425 | 1 | 293 | 1.6 | 3.2 | 0.00 | 0.00 | 0.00 | 86 | 1008.4 |
| 20260507075920 | 1 | 297 | 3.2 | 3.2 | 0.00 | 0.00 | 0.00 | 86 | 1008.2 |
| 20260507075417 | 1 | 287 | 3.2 | 3.2 | 0.00 | 0.00 | 0.00 | 85 | 1008.4 |
| 20260507074914 | 1 | 267 | 3.2 | 3.2 | 0.00 | 0.00 | 0.00 | 87 | 1008.4 |
| 20260507074410 | 1 | 266 | 3.2 | 4.8 | 0.00 | 0.00 | 0.00 | 86 | 1008.6 |
| 20260507073908 | 1 | 259 | 1.6 | 3.2 | 0.00 | 0.00 | 0.00 | 87 | 1008.5 |
| 20260507073404 | 1 | 159 | 1.6 | 1.6 | 0.00 | 0.00 | 0.00 | 88 | 1008.3 |
| 20260507072902 | 1 | 146 | 1.6 | 1.6 | 0.00 | 0.00 | 0.00 | 88 | 1008.5 |
| 20260507072359 | 1 | 147 | 0.0 | 1.6 | 0.00 | 0.00 | 0.00 | 85 | 1008.4 |
| 20260507071856 | 1 | 150 | 0.0 | 1.6 | 0.00 | 0.00 | 0.00 | 85 | 1008.5 |
| 20260507071353 | 1 | 156 | 0.0 | 1.6 | 0.00 | 0.00 | 0.00 | 86 | 1008.5 |
| 20260507070849 | 1 | 164 | 1.6 | 1.6 | 0.00 | 0.00 | 0.00 | 86 | 1008.4 |
| 20260507070347 | 1 | 191 | 0.0 | 1.6 | 0.00 | 0.00 | 0.00 | 86 | 1008.8 |
| 20260507065844 | 2 | 238 | 1.6 | 3.2 | 0.00 | 0.00 | 0.00 | 86 | 1008.7 |
| 20260507065340 | 2 | 244 | 0.0 | 1.6 | 0.00 | 0.00 | 0.00 | 84 | 1008.6 |
| 20260507064837 | 2 | 262 | 1.6 | 3.2 | 0.00 | 0.00 | 0.00 | 83 | 1008.7 |
| 20260507064336 | 2 | 310 | 1.6 | 3.2 | 0.00 | 0.00 | 0.00 | 83 | 1008.6 |
| 20260507063833 | 2 | 273 | 1.6 | 3.2 | 0.00 | 0.00 | 0.00 | 82 | 1008.9 |
| 20260507063330 | 2 | 263 | 3.2 | 3.2 | 0.00 | 0.00 | 0.00 | 82 | 1009.0 |
| 20260507062826 | 2 | 247 | 3.2 | 3.2 | 0.00 | 0.00 | 0.00 | 82 | 1008.8 |
| 20260507062324 | 3 | 249 | 4.8 | 4.8 | 0.00 | 0.00 | 0.00 | 81 | 1009.1 |
| 20260507061822 | 3 | 301 | 3.2 | 4.8 | 0.00 | 0.00 | 0.00 | 81 | 1009.1 |
| 20260507061320 | 3 | 281 | 3.2 | 3.2 | 0.00 | 0.00 | 0.00 | 82 | 1009.0 |
| 20260507060818 | 3 | 256 | 1.6 | 3.2 | 0.00 | 0.00 | 0.00 | 82 | 1009.2 |
| 20260507060314 | 3 | 245 | 3.2 | 3.2 | 0.00 | 0.00 | 0.00 | 82 | 1009.1 |
| 20260507055811 | 3 | 217 | 1.6 | 8.0 | 0.00 | 0.00 | 0.00 | 81 | 1009.1 |
| 20260507055306 | 3 | 246 | 3.2 | 3.2 | 0.00 | 0.00 | 0.00 | 81 | 1009.2 |
| 20260507054803 | 3 | 246 | 3.2 | 3.2 | 0.00 | 0.00 | 0.00 | 80 | 1009.2 |
| 20260507054259 | 3 | 205 | 3.2 | 8.0 | 0.00 | 0.00 | 0.00 | 80 | 1009.0 |
| 20260507053756 | 3 | 218 | 3.2 | 8.0 | 0.00 | 0.00 | 0.00 | 78 | 1009.0 |
| 20260507053254 | 3 | 231 | 4.8 | 4.8 | 0.00 | 0.00 | 0.00 | 79 | 1009.3 |
| 20260507052753 | 3 | 211 | 1.6 | 3.2 | 0.00 | 0.00 | 0.00 | 79 | 1009.2 |
| 20260507052249 | 3 | 143 | 1.6 | 3.2 | 0.00 | 0.00 | 0.00 | 78 | 1009.1 |
| 20260507051747 | 3 | 111 | 0.0 | 1.6 | 0.00 | 0.00 | 0.00 | 78 | 1009.3 |
| 20260507051243 | 3 | 139 | 0.0 | 1.6 | 0.00 | 0.00 | 0.00 | 78 | 1009.2 |
| 20260507050740 | 3 | 149 | 1.6 | 1.6 | 0.00 | 0.00 | 0.00 | 77 | 1009.2 |
| 20260507050237 | 3 | 142 | 1.6 | 3.2 | 0.00 | 0.00 | 0.00 | 77 | 1009.1 |
| 20260507045734 | 3 | 163 | 3.2 | 3.2 | 0.00 | 0.00 | 0.00 | 77 | 1009.1 |
| 20260507045230 | 3 | 179 | 1.6 | 4.8 | 0.00 | 0.00 | 0.00 | 76 | 1009.3 |
| 20260507044728 | 3 | 197 | 3.2 | 3.2 | 0.00 | 0.00 | 0.00 | 76 | 1009.2 |
| 20260507044224 | 3 | 188 | 3.2 | 8.0 | 0.00 | 0.00 | 0.00 | 77 | 1009.3 |
| 20260507043720 | 3 | 176 | 1.6 | 3.2 | 0.00 | 0.00 | 0.00 | 79 | 1009.3 |
| 20260507043217 | 3 | 159 | 1.6 | 3.2 | 0.00 | 0.00 | 0.00 | 78 | 1009.2 |
| 20260507042714 | 3 | 156 | 1.6 | 1.6 | 0.00 | 0.00 | 0.00 | 78 | 1009.3 |
| 20260507042208 | 3 | 159 | 1.6 | 3.2 | 0.00 | 0.00 | 0.00 | 78 | 1009.4 |
| 20260507041706 | 3 | 138 | 1.6 | 1.6 | 0.00 | 0.00 | 0.00 | 78 | 1009.1 |
| 20260507041202 | 3 | 140 | 0.0 | 1.6 | 0.00 | 0.00 | 0.00 | 78 | 1009.4 |
| 20260507040700 | 3 | 164 | 1.6 | 3.2 | 0.00 | 0.00 | 0.00 | 77 | 1009.4 |
| 20260507040155 | 3 | 160 | 1.6 | 3.2 | 0.00 | 0.00 | 0.00 | 77 | 1009.3 |
| 20260507035652 | 3 | 146 | 3.2 | 3.2 | 0.00 | 0.00 | 0.00 | 77 | 1009.5 |
| 20260507035148 | 3 | 141 | 1.6 | 1.6 | 0.00 | 0.00 | 0.00 | 77 | 1009.3 |
| 20260507034645 | 3 | 166 | 1.6 | 4.8 | 0.00 | 0.00 | 0.00 | 76 | 1009.4 |
| 20260507034142 | 3 | 170 | 1.6 | 3.2 | 0.00 | 0.00 | 0.00 | 77 | 1009.7 |
| 20260507033641 | 3 | 154 | 1.6 | 3.2 | 0.00 | 0.00 | 0.00 | 77 | 1009.5 |
| 20260507033137 | 3 | 179 | 4.8 | 8.0 | 0.00 | 0.00 | 0.00 | 76 | 1009.5 |
| 20260507032635 | 3 | 198 | 6.4 | 12.9 | 0.00 | 0.00 | 0.00 | 76 | 1009.2 |
| 20260507032130 | 3 | 187 | 3.2 | 8.0 | 0.00 | 0.00 | 0.00 | 77 | 1009.4 |
| 20260507031628 | 3 | 192 | 3.2 | 11.3 | 0.00 | 0.00 | 0.00 | 77 | 1009.4 |
| 20260507031124 | 3 | 171 | 3.2 | 11.3 | 0.00 | 0.00 | 0.00 | 77 | 1009.4 |
| 20260507030621 | 3 | 196 | 3.2 | 8.0 | 0.00 | 0.00 | 0.00 | 77 | 1009.4 |
| 20260507030119 | 3 | 189 | 3.2 | 8.0 | 0.00 | 0.00 | 0.00 | 77 | 1009.5 |
| 20260507025616 | 3 | 183 | 3.2 | 9.7 | 0.00 | 0.00 | 0.00 | 77 | 1009.3 |
| 20260507025113 | 3 | 177 | 3.2 | 4.8 | 0.00 | 0.00 | 0.00 | 77 | 1009.3 |
| 20260507024611 | 3 | 187 | 3.2 | 4.8 | 0.00 | 0.00 | 0.00 | 77 | 1009.5 |
| 20260507024108 | 3 | 245 | 4.8 | 8.0 | 0.00 | 0.00 | 0.00 | 76 | 1009.5 |
| 20260507023603 | 3 | 196 | 1.6 | 3.2 | 0.00 | 0.00 | 0.00 | 77 | 1009.7 |
| 20260507023101 | 3 | 180 | 3.2 | 3.2 | 0.00 | 0.00 | 0.00 | 77 | 1009.4 |
| 20260507022557 | 3 | 192 | 1.6 | 3.2 | 0.00 | 0.00 | 0.00 | 77 | 1009.6 |
| 20260507022053 | 3 | 141 | 0.0 | 3.2 | 0.00 | 0.00 | 0.00 | 76 | 1009.3 |
| 20260507021549 | 3 | 204 | 4.8 | 4.8 | 0.00 | 0.00 | 0.00 | 77 | 1009.5 |
| 20260507021045 | 3 | 196 | 1.6 | 3.2 | 0.00 | 0.00 | 0.00 | 77 | 1009.4 |
| 20260507020544 | 3 | 158 | 1.6 | 1.6 | 0.00 | 0.00 | 0.00 | 77 | 1009.5 |
| 20260507020039 | 3 | 214 | 1.6 | 9.7 | 0.00 | 0.00 | 0.00 | 78 | 1009.5 |
| 20260507015538 | 3 | 219 | 3.2 | 9.7 | 0.00 | 0.00 | 0.00 | 77 | 1009.3 |
| 20260507015035 | 3 | 261 | 3.2 | 3.2 | 0.00 | 0.00 | 0.00 | 79 | 1009.2 |
| 20260507014532 | 3 | 200 | 3.2 | 4.8 | 0.00 | 0.00 | 0.00 | 77 | 1009.2 |
| 20260507014027 | 3 | 181 | 1.6 | 3.2 | 0.00 | 0.00 | 0.00 | 77 | 1009.2 |
| 20260507013524 | 3 | 193 | 1.6 | 4.8 | 0.00 | 0.00 | 0.00 | 77 | 1009.3 |
| 20260507013022 | 3 | 163 | 1.6 | 4.8 | 0.00 | 0.00 | 0.00 | 76 | 1009.0 |
| 20260507012519 | 3 | 162 | 1.6 | 3.2 | 0.00 | 0.00 | 0.00 | 78 | 1009.1 |
| 20260507012015 | 3 | 149 | 1.6 | 1.6 | 0.00 | 0.00 | 0.00 | 76 | 1009.1 |
| 20260507011512 | 3 | 150 | 1.6 | 3.2 | 0.00 | 0.00 | 0.00 | 76 | 1009.1 |
| 20260507011008 | 3 | 42 | 1.6 | 3.2 | 0.00 | 0.00 | 0.00 | 76 | 1009.1 |
| 20260507010502 | 4 | 30 | 3.2 | 3.2 | 0.00 | 0.00 | 0.00 | 77 | 1009.0 |
| 20260507010000 | 4 | 303 | 3.2 | 3.2 | 0.00 | 0.00 | 0.00 | 76 | 1009.1 |
| 20260507005457 | 4 | 32 | 1.6 | 3.2 | 0.00 | 0.00 | 0.00 | 78 | 1009.1 |